www.pogodaiklimat.ru

Погода и климат >> Архив погоды >> Французская Полинезия >> Bora-Bora Airport


ПОГОДА в Bora-Bora Airport

  • Прогноз погоды в Bora-Bora Airport
  • Монитор погоды в Bora-Bora Airport
  • Климат города

АРХИВ ПОГОДЫ в Bora-Bora Airport

Время (UTC), дата Ветер
(напр.,м/с)
 
Видим.   Явления Облачность Т
(С)
Тd
(С)
f
(%)
Тe
(С)
Тes
(С)
Комфортность P
(гПа)
Po
(гПа)
Тmin
(С)
Tmax
(С)
R
(мм)
R24
(мм)
S
(см)
17 20.06 В 2 60 км 10/3 500 м
[]
+26.1 +23.0 83 +35 +35 очень
душно
1014.1 1013.8
16 20.06 В 2 50 км 8/8 2000 м
[]
+25.9 +22.0 79 +33 +33 очень
душно
1013.0 1012.7
18 20.06 В 3 45 км н/о +26.8 +23.3 81 +36 +36 очень
душно
1014.3 1014.0 +25.1 +26.8
19 20.06 В 3 60 км н/о +27.3 +23.1 78 +37 +37 очень
душно
1014.8 1014.5
20 20.06 В 3 2800 м слабый дождь 8/8 660 м
[]
+24.6 +22.8 90 +33 +34 очень
душно
1015.4 1015.1 2
21 20.06 В 2 55 км н/о +26.7 +23.6 83 +36 +36 очень
душно
1014.6 1014.3 2
23 20.06 В 2 23 км н/о +27.7 +23.5 78 +38 +38 очень
душно
1012.6 1012.3
22 20.06 В 3 40 км н/о +27.3 +24.0 82 +38 +38 очень
душно
1012.9 1012.6
00 21.06 В 3 30 км н/о +28.3 +23.7 76 +39 +39 очень
душно
1012.0 1011.7
01 21.06 В 2 40 км 9/9 660 м
[]
+27.6 +23.2 77 +37 +38 очень
душно
1012.0 1011.7
02 21.06 В 2 35 км 10/1 630 м
[]
+27.2 +22.6 76 +36 +37 очень
душно
1011.9 1011.6
03 21.06 В 2 40 км 10/3 700 м
[]
+27.0 +22.8 78 +36 +36 очень
душно
1012.4 1012.1
05 21.06 В 2 29 км 10/3 660 м
[]
+26.4 +22.7 80 +35 +35 очень
душно
1013.3 1013.0
04 21.06 В 2 50 км 8/3 700 м
[]
+26.3 +22.4 79 +34 +34 очень
душно
1013.0 1012.7
06 21.06 В 2 23 км 10/4 600 м
[]
+26.7 +23.2 81 +36 +36 очень
душно
1014.1 1013.8 +24.2 +28.8
07 21.06 В 2 35 км 9/1 700 м
[]
+26.8 +22.6 78 +35 +35 очень
душно
1014.0 1013.7
08 21.06 В 2 50 км 8/8
[]
+26.7 +23.0 80 +36 +36 очень
душно
1014.1 1013.8
09 21.06 В 2 45 км н/о +26.8 +23.1 80 +36 +36 очень
душно
1014.0 1013.7
11 21.06 В 3 35 км 10/1 570 м
[]
+26.7 +23.0 80 +36 +36 очень
душно
1012.5 1012.2
10 21.06 В 2 50 км н/о +26.7 +23.0 80 +36 +36 очень
душно
1013.5 1013.2
12 21.06 В 4
{6}
40 км н/о +26.5 +23.2 82 +36 +36 очень
душно
1012.0 1011.7
13 21.06 СВ 2 35 км н/о +26.4 +22.3 78 +34 +34 очень
душно
1011.8 1011.5
14 21.06 СВ 2 40 км н/о +26.2 +21.8 77 +34 +34 очень
душно
1011.4 1011.1
15 21.06 СВ 2 45 км 9/8 660 м
[]
+26.3 +22.6 80 +35 +35 очень
душно
1011.4 1011.1
17 21.06 С 1 40 км н/о +26.5 +21.9 76 +34 +34 очень
душно
1012.1 1011.8
16 21.06 С 1 30 км н/о +26.1 +22.2 79 +34 +34 очень
душно
1011.7 1011.4
18 21.06 С 2 60 км н/о +28.1 +22.1 70 +37 +37 очень
душно
1012.7 1012.4 +26.0 +28.1
19 21.06 С 2 60 км н/о +28.7 +22.2 68 +37 +37 очень
душно
1012.7 1012.4
20 21.06 С 2 60 км н/о +29.1 +22.1 66 +38 +38 очень
душно
1012.7 1012.4
21 21.06 С 2 60 км н/о +29.2 +22.9 69 +39 +39 очень
душно
1012.1 1011.8
23 21.06 С 2 60 км н/о +29.4 +22.1 65 +38 +38 очень
душно
1010.8 1010.5
22 21.06 С 2 60 км н/о +29.5 +22.2 65 +38 +38 очень
душно
1011.5 1011.2
00 22.06 С 2-2
{2}
60 км н/о +29.4 +22.4 66 +38 +38 очень
душно
1009.9 1009.6
01 22.06 С 2 60 км н/о +29.0 +22.2 67 +38 +38 очень
душно
1009.5 1009.2
02 22.06 СЗ 2 60 км н/о +28.9 +22.2 67 +38 +38 очень
душно
1009.3 1009.0
03 22.06 СЗ 2 60 км н/о +27.9 +21.9 70 +36 +36 очень
душно
1009.4 1009.1
05 22.06 СЗ 2 60 км 9/1 660 м
[]
+27.1 +22.7 77 +36 +36 очень
душно
1010.2 1009.9
04 22.06 СЗ 1 60 км н/о +26.8 +22.0 75 +35 +35 очень
душно
1009.8 1009.5
06 22.06 СЗ 1 35 км 10/10 1140 м
[]
+24.3 +21.8 86 +31 +31 очень
душно
1010.8 1010.5 +24.3 +29.5 0.8
07 22.06 СЗ 1 60 км 10/6 1080 м
[]
+25.6 +21.7 79 +33 +33 очень
душно
1011.0 1010.7
08 22.06 ЮЗ 4 1900 м дождь 10/9 210 м
[]
+24.4 +22.8 91 +32 +32 очень
душно
1011.3 1011.0 3
09 22.06 Ю 2 2900 м слабый дождь 10/10 450 м
[]
+24.1 +22.5 91 +32 +32 очень
душно
1011.2 1010.9 6
11 22.06 Ю 2 19 км слабый дождь 10/9 500 м
[]
+24.4 +22.1 87 +32 +32 очень
душно
1010.8 1010.5 0.2
10 22.06 ЮВ 3 18 км слабый дождь 10/10 540 м
[]
+24.6 +22.8 90 +33 +33 очень
душно
1010.9 1010.6
12 22.06 Ю 3 12 км слабый дождь 10/10 570 м
[]
+24.4 +22.1 87 +32 +32 очень
душно
1010.2 1009.9 0.2
13 22.06 ЮВ 5 24 км слабый дождь 10/10 420 м
[]
+24.4 +22.3 88 +32 +32 очень
душно
1010.0 1009.7
14 22.06 Ю 5 60 км 10/10 600 м
[]
+24.8 +21.5 82 +32 +32 очень
душно
1009.9 1009.6
15 22.06 ЮВ 4 50 км 9/9 600 м
[]
+25.2 +21.3 79 +32 +32 очень
душно
1010.0 1009.7 7
17 22.06 ЮВ 4 60 км 10/10 600 м
[]
+25.0 +20.9 78 +31 +31 очень
душно
1011.1 1010.8
16 22.06 Ю 5 60 км 10/10 450 м
[]
+24.6 +21.5 83 +31 +31 очень
душно
1010.6 1010.3
18 22.06 ЮВ 3 60 км н/о +26.0 +20.8 73 +33 +33 очень
душно
1011.7 1011.4 +24.0 +26.2
19 22.06 ЮВ 4 40 км 9/9 750 м
[]
+25.9 +20.9 74 +32 +33 очень
душно
1012.4 1012.1
20 22.06 ЮВ 5 60 км 10/10 840 м
[]
+26.6 +21.1 72 +34 +34 очень
душно
1012.4 1012.1
21 22.06 ЮВ 4 60 км 9/9 870 м
[]
+27.1 +20.4 67 +34 +34 очень
душно
1012.1 1011.8 0.2
23 22.06 Ю 5 60 км 10/8 1020 м
[]
+27.2 +19.8 64 +33 +34 очень
душно
1010.8 1010.5
22 22.06 Ю 9
{16}
60 км 9/9 600 м
[]
+26.9 +20.7 69 +34 +34 очень
душно
1011.3 1011.0
00 23.06 Ю 5 60 км 10/6 930 м
[]
+27.1 +20.0 65 +33 +34 очень
душно
1010.4 1010.1
01 23.06 ЮВ 5 60 км 10/8 930 м
[]
+26.7 +19.8 66 +33 +33 очень
душно
1009.9 1009.6
02 23.06 Ю 4 60 км 9/8 1000 м
[]
+26.1 +19.7 68 +32 +32 очень
душно
1009.9 1009.6
03 23.06 Ю 5 55 км 9/9 900 м
[]
+25.5 +19.6 70 +31 +31 очень
душно
1010.3 1010.0
05 23.06 Ю 5 60 км н/о +25.1 +19.0 69 +30 +30 душно 1011.4 1011.1
04 23.06 Ю 5 55 км 9/6 1020 м
[]
+25.2 +19.1 69 +30 +30 душно 1010.7 1010.4
06 23.06 ЮВ 4 55 км н/о +25.0 +18.2 66 +29 +29 душно 1012.2 1011.9 +25.0 +27.6
07 23.06 Ю 5 55 км н/о +24.8 +17.8 65 +29 +29 душно 1012.5 1012.2
08 23.06 Ю 5 60 км н/о +24.6 +18.1 67 +29 +29 душно 1012.5 1012.2
09 23.06 Ю 4 60 км н/о +24.5 +17.5 65 +29 +29 душно 1012.2 1011.9
11 23.06 Ю 3 60 км н/о +24.3 +16.8 63 +28 +28 душно 1012.5 1012.2
10 23.06 Ю 4 60 км н/о +24.5 +17.2 64 +28 +28 душно 1012.2 1011.9
12 23.06 ЮВ 4-5
{6}
60 км н/о +24.2 +16.5 62 +28 +28 душно 1012.4 1012.1
13 23.06 ЮВ 4 60 км н/о +24.1 +16.9 64 +28 +28 душно 1012.3 1012.0
14 23.06 ЮВ 4 60 км 10/10 1230 м
[]
+24.0 +16.8 64 +28 +28 душно 1012.4 1012.1
15 23.06 Ю 4 60 км н/о +23.7 +15.7 61 +27 +27 жарко 1012.7 1012.4
17 23.06 ЮВ 5 60 км н/о +24.0 +15.8 60 +27 +27 жарко 1013.6 1013.3
16 23.06 ЮВ 4 60 км 8/8 1500 м
[]
+24.0 +16.3 62 +27 +27 жарко 1013.2 1012.9
18 23.06 ЮВ 4-6
{8}
60 км н/о +24.8 +16.2 59 +28 +28 жарко 1014.2 1013.9 +23.6 +25.0
19 23.06 ЮВ 4 60 км н/о +25.2 +16.6 59 +29 +29 душно 1014.4 1014.1
20 23.06 ЮВ 4 60 км 9/9 1500 м
[]
+26.0 +16.5 56 +30 +30 душно 1014.5 1014.2
21 23.06 ЮВ 4 60 км 10/10 1500 м
[]
+26.1 +16.1 54 +29 +29 жарко 1014.0 1013.7
23 23.06 ЮВ 4 60 км 10/9 1170 м
[]
+26.2 +18.1 61 +31 +31 очень
душно
1013.2 1012.9
22 23.06 ЮВ 2 60 км 10/10 1500 м
[]
+26.3 +17.1 57 +30 +30 душно 1013.7 1013.4
00 24.06 Ю 3 60 км 10/10 1230 м
[]
+25.2 +17.4 62 +29 +29 душно 1013.0 1012.7
01 24.06 Ю 4 60 км 10/4 1200 м
[]
+25.4 +16.3 57 +29 +30 душно 1012.4 1012.1
02 24.06 ЮВ 4 60 км 10/10 1500 м
[]
+25.6 +17.0 59 +29 +29 душно 1012.3 1012.0
03 24.06 ЮВ 4 55 км 9/6 1050 м
[]
+24.7 +17.9 66 +29 +29 душно 1012.8 1012.5
05 24.06 ЮВ 4 60 км 9/9 1500 м
[]
+24.3 +17.5 66 +28 +28 душно 1013.5 1013.2
04 24.06 ЮВ 3 50 км 10/8 960 м
[]
+24.5 +18.4 69 +29 +29 душно 1013.4 1013.1
06 24.06 В 2 55 км н/о +23.8 +16.8 65 +27 +27 жарко 1014.3 1014.0 +23.8 +26.9
07 24.06 В 2 60 км 10/10 1500 м
[]
+24.1 +17.1 65 +28 +28 душно 1014.4 1014.1
08 24.06 ЮВ 2 60 км н/о +23.8 +18.0 70 +28 +28 душно 1014.6 1014.3
09 24.06 В 2 60 км н/о +24.2 +18.4 70 +29 +29 душно 1014.7 1014.4
11 24.06 ЮВ 3 60 км 10/10 1440 м
[]
+24.6 +18.3 68 +29 +29 душно 1014.6 1014.3
10 24.06 ЮВ 2 55 км 10/10 1110 м
[]
+24.1 +18.1 69 +28 +28 душно 1014.7 1014.4
12 24.06 ЮВ 3 60 км 10/10 930 м
[]
+24.7 +18.6 69 +29 +29 душно 1014.1 1013.8
13 24.06 ЮВ 3 60 км 10/10 840 м
[]
+24.7 +18.9 70 +30 +30 очень
душно
1013.8 1013.5
14 24.06 ЮВ 3 60 км 10/10 1440 м
[]
+24.6 +19.4 73 +30 +30 очень
душно
1013.3 1013.0
15 24.06 ЮВ 3 60 км 10/10 1170 м
[]
+24.5 +19.1 72 +29 +29 душно 1013.6 1013.3
17 24.06 В 3 60 км 9/9 2000 м
[]
+23.8 +19.5 77 +29 +29 душно 1014.5 1014.2
16 24.06 ЮВ 3 60 км 10/5 800 м
[]
+24.7 +19.1 71 +30 +30 очень
душно
1014.1 1013.8
18 24.06 В 3 60 км 9/6 1080 м
[]
+25.1 +20.4 75 +31 +32 очень
душно
1015.2 1014.9 +23.6 +25.2
19 24.06 ЮВ 3 60 км н/о +25.9 +20.5 72 +32 +32 очень
душно
1015.7 1015.4
20 24.06 ЮВ 4 60 км н/о +26.2 +20.8 72 +33 +33 очень
душно
1015.7 1015.4
21 24.06 ЮВ 4 60 км 10/10 800 м
[]
+26.0 +20.6 72 +32 +32 очень
душно
1015.5 1015.2
23 24.06 ЮВ 4 60 км 10/6 870 м
[]
+26.3 +20.4 70 +33 +34 очень
душно
1013.7 1013.4
22 24.06 ЮВ 3 60 км 9/9 800 м
[]
+26.5 +20.6 70 +33 +34 очень
душно
1014.6 1014.3
00 25.06 ЮВ 4 60 км 10/4 800 м
[]
+26.4 +20.5 70 +33 +35 очень
душно
1013.2 1012.9
01 25.06 ЮВ 4 50 км 10/10 800 м
[]
+25.6 +20.2 72 +32 +32 очень
душно
1013.2 1012.9
02 25.06 ЮВ 3 45 км 10/9 750 м
[]
+25.0 +20.5 76 +31 +31 очень
душно
1013.2 1012.9
03 25.06 ЮВ 4 60 км 9/6 500 м
[]
+24.5 +20.8 80 +31 +31 очень
душно
1013.3 1013.0
05 25.06 В 3 60 км н/о +24.3 +20.4 79 +30 +30 очень
душно
1014.0 1013.7
04 25.06 В 2 55 км н/о +24.0 +20.7 82 +30 +30 очень
душно
1013.8 1013.5
06 25.06 В 3 60 км н/о +24.5 +20.6 79 +30 +30 очень
душно
1014.3 1014.0 +24.0 +27.2
07 25.06 ЮВ 4 60 км н/о +25.1 +21.0 78 +32 +32 очень
душно
1015.0 1014.7
08 25.06 В 3 60 км 10/10 1050 м
[]
+25.2 +20.5 75 +31 +31 очень
душно
1015.1 1014.8
09 25.06 В 3 60 км 8/8 720 м
[]
+25.3 +20.8 76 +32 +32 очень
душно
1014.9 1014.6
11 25.06 В 3 60 км 10/10 660 м
[]
+25.1 +21.2 79 +32 +32 очень
душно
1014.9 1014.6
10 25.06 ЮВ 3 60 км н/о +25.0 +21.1 79 +32 +32 очень
душно
1014.9 1014.6
12 25.06 ЮВ 3 60 км 9/8 570 м
[]
+25.1 +21.0 78 +32 +32 очень
душно
1013.9 1013.6
13 25.06 В 3 60 км 10/5 630 м
[]
+25.4 +20.9 76 +32 +32 очень
душно
1013.2 1012.9
14 25.06 ЮВ 3 55 км 10/8 630 м
[]
+25.4 +21.7 80 +33 +33 очень
душно
1013.1 1012.8
15 25.06 В 3 55 км 10/9 660 м
[]
+25.6 +21.5 78 +33 +33 очень
душно
1013.2 1012.9
17 25.06 В 3 55 км 10/6 660 м
[]
+25.7 +22.0 80 +33 +33 очень
душно
1014.0 1013.7
16 25.06 В 3 60 км 9/6 900 м
[]
+25.4 +21.5 79 +32 +32 очень
душно
1013.3 1013.0
18 25.06 В 3 40 км 9/9 630 м
[]
+26.5 +22.1 77 +34 +35 очень
душно
1014.4 1014.1 +24.4 +26.8
19 25.06 В 3 40 км н/о +27.7 +22.0 71 +36 +36 очень
душно
1014.6 1014.3
20 25.06 В 4 35 км н/о +27.8 +22.5 73 +37 +37 очень
душно
1014.6 1014.3
21 25.06 В 4 35 км 10/10 800 м
[]
+28.2 +22.2 70 +37 +37 очень
душно
1014.5 1014.2
23 25.06 В 4 40 км 10/10 630 м
[]
+28.2 +23.1 74 +38 +38 очень
душно
1013.4 1013.1
22 25.06 В 4 35 км 10/10 750 м
[]
+28.8 +23.0 71 +39 +39 очень
душно
1014.0 1013.7
00 26.06 В 3 40 км 10/10 600 м
[]
+28.3 +23.4 75 +38 +38 очень
душно
1012.6 1012.3
01 26.06 В 7
{9}
17 км н/о +28.4 +23.3 74 +38 +38 очень
душно
1012.3 1012.0
02 26.06 В 3 20 км 9/9 540 м
[]
+27.5 +23.3 78 +37 +37 очень
душно
1012.4 1012.1
03 26.06 В 2 55 км 9/9 360 м
[]
+25.8 +23.7 88 +35 +35 очень
душно
1012.8 1012.5 0.4
05 26.06 В 2 16 км слабый дождь 10/9 400 м
[]
+25.6 +24.0 91 +35 +35 очень
душно
1013.5 1013.2
04 26.06 В 2 45 км н/о +25.8 +23.7 88 +35 +35 очень
душно
1013.2 1012.9
06 26.06 ЮВ 3 60 км н/о +25.4 +23.8 91 +35 +35 очень
душно
1013.7 1013.4 +25.1 +29.1 3
07 26.06 В 2 60 км н/о +25.5 +23.7 90 +35 +35 очень
душно
1014.2 1013.9
08 26.06 В 3 60 км н/о +25.4 +23.6 90 +35 +35 очень
душно
1014.4 1014.1
09 26.06 В 3 55 км н/о +25.6 +23.6 89 +35 +35 очень
душно
1013.9 1013.6
11 26.06 В 2 60 км н/о +25.2 +23.3 89 +34 +34 очень
душно
1013.7 1013.4
10 26.06 В 2 60 км 9/8 330 м
[]
+25.5 +23.6 89 +35 +35 очень
душно
1013.9 1013.6
12 26.06 В 2-3
{3}
60 км н/о +25.3 +23.5 90 +34 +34 очень
душно
1013.3 1013.0
13 26.06 В 2 60 км н/о +25.6 +23.6 89 +35 +35 очень
душно
1012.8 1012.5
14 26.06 В 2 50 км н/о +25.9 +23.6 87 +35 +35 очень
душно
1012.7 1012.4
15 26.06 В 2 45 км н/о +25.8 +23.7 88 +35 +35 очень
душно
1012.9 1012.6
17 26.06 ЮВ 2 55 км 9/9 500 м
[]
+25.7 +23.9 90 +35 +35 очень
душно
1013.9 1013.6
16 26.06 В 2 45 км н/о +25.4 +23.1 87 +34 +34 очень
душно
1013.2 1012.9
18 26.06 ЮВ 2 60 км н/о +26.8 +24.3 86 +37 +37 очень
душно
1014.5 1014.2 +25.2 +26.8
19 26.06 В 2 60 км н/о +27.2 +24.5 85 +38 +38 очень
душно
1015.0 1014.7
20 26.06 В 2 55 км н/о +27.4 +23.6 80 +37 +37 очень
душно
1015.2 1014.9
21 26.06 В 2 60 км 10/1 450 м
[]
+28.9 +24.9 79 +41 +47 опасность
перегрева
1014.6 1014.3
23 26.06 В 3 60 км н/о +29.1 +24.2 75 +41 +41 опасность
перегрева
1013.5 1013.2
22 26.06 В 2 60 км н/о +29.2 +24.3 75 +41 +41 опасность
перегрева
1014.0 1013.7
00 27.06 В 2-3
{5}
60 км н/о +29.4 +23.8 72 +40 +40 очень
душно
1012.7 1012.4
01 27.06 В 2 60 км н/о +29.1 +23.8 73 +40 +40 очень
душно
1012.7 1012.4
02 27.06 В 2 60 км н/о +28.7 +23.1 72 +39 +39 очень
душно
1012.8 1012.5
03 27.06 В 2 45 км н/о +28.2 +23.6 76 +38 +38 очень
душно
1013.2 1012.9
05 27.06 В 2 55 км 8/5 540 м
[]
+27.1 +23.6 81 +37 +37 очень
душно
1014.5 1014.2
04 27.06 В 2 55 км 9/1 600 м
[]
+27.2 +23.0 78 +36 +36 очень
душно
1013.8 1013.5
06 27.06 В 2 55 км н/о +26.8 +23.5 82 +36 +36 очень
душно
1014.7 1014.4 +26.5 +29.6
07 27.06 В 2 55 км н/о +26.7 +23.8 84 +37 +37 очень
душно
1014.9 1014.6
08 27.06 В 2 35 км н/о +26.6 +23.5 83 +36 +36 очень
душно
1014.9 1014.6
09 27.06 В 2 40 км н/о +26.5 +23.8 85 +36 +36 очень
душно
1014.5 1014.2
11 27.06 В 2 28 км н/о +26.5 +23.8 85 +36 +36 очень
душно
1014.3 1014.0
10 27.06 В 2 45 км н/о +26.6 +23.9 85 +37 +37 очень
душно
1014.5 1014.2
12 27.06 В 2 30 км н/о +26.5 +23.8 85 +36 +36 очень
душно
1013.7 1013.4
13 27.06 В 1 55 км н/о +25.5 +23.2 87 +34 +34 очень
душно
1013.3 1013.0
14 27.06 В 2 55 км н/о +25.8 +23.5 87 +35 +35 очень
душно
1013.2 1012.9
15 27.06 В 2 40 км н/о +26.2 +23.7 86 +36 +36 очень
душно
1013.4 1013.1
16 27.06 В 2 27 км н/о +26.3 +23.6 85 +36 +36 очень
душно
1013.7 1013.4

 

Местоположение метеостанции Bora-Bora Airport (Французская Полинезия): широта -16.43 долгота -151.70 высота над уровнем моря 3 м.

В архиве по умолчанию представлена погода в Bora-Bora Airport за последнюю неделю. Архивные данные за месяц целиком и за предыдущие месяцы, начиная с января 2011 года, Вы можете получить, выбрав интересующий диапазон дат из раскрывающегося списка и нажав кнопку "Ввод!".

Внимание! Время в таблицах - всемирное. Для получения местного времени необходимо прибавить поправку, которая в Bora-Bora Airport равна -10 ч.

Смотрите также архив погоды в соседних городах и на ближайших метеорологических станциях:

Погода в Tahiti-Faaa (Французская Полинезия) (256 км)
Погода в Takaroa (Французская Полинезия) (750 км)
Погода в Hereheretue (Французская Полинезия) (806 км)
Погода в Tubuai (Французская Полинезия) (806 км)
Погода в Aitutaki (Кука Острова) (889 км)
Погода в Rarotonga (Кука Острова) (1004 км)
Погода в Penrhyn (Кука Острова) (1070 км)
Погода в Hao (Французская Полинезия) (1161 км)
Погода в Manihiki (Кука Острова) (1209 км)
Погода в Rapa (Французская Полинезия) (1458 км)

Пояснения к столбцам:

Ветер - указаны скорость ветра в м/с - средняя за 10 мин, порывы в срок и между сроками (в фигурных скобках) и направление, откуда дует ветер: С - северный, СВ - северо-восточный, В - восточный, ЮВ - юго-восточный, Ю - южный, ЮЗ - юго-западный, З - западный, СЗ - северо-западный.
Видимость - горизонтальная дальность видимости в метрах или километрах. При видимости от 1 до 10 км при отсутствии осадков обычно наблюдается дымка, при ухудшении видимости до 1 км и менее - туман. В сухую погоду видимость может ухудшаться дымом, пылью или мглою.
Явления - указаны атмосферные явления, наблюдавшиеся в срок или в последний час перед сроком; фигурными скобками обозначены явления, наблюдавшиеся между сроками (за 1-3 часа до срока); квадратными скобками обозначены град или гололедные отложения с указанием их диаметра в мм.
Облачность - указаны через наклонную черту общая и нижняя облачность в баллах и высота нижней границы облаков в метрах; квадратными скобками обозначены формы облаков: Ci - перистые, Cs - перисто-слоистые, Cc - перисто-кучевые, Ac - высококучевые, As - высокослоистые, Sc - слоисто-кучевые, Ns - слоисто-дождевые, Cu - кучевые, Cb - кучево-дождевые. Подробнее классификацию облаков см. в Атласе облаков (PDF).
T - Температура воздуха - температура, измеренная на высоте 2 м над землей.
Td - Температура точки росы - температура, при понижении до которой содержащийся в воздухе водяной пар достигнет насыщения.
f - Относительная влажность воздуха - влажноcть воздуха, измеренная на высоте 2 м над землей.
Te - Эффективная температура - температура, которую ощущает одетый по сезону человек в тени. Характеристика душности погоды. При расчете учитывается влияние влажности воздуха и скорости ветра на теплоощущения человека.
Tes - Эффективная температура на солнце - температура, которую ощущает человек, с поправкой на солнечный нагрев. Характеристика знойности погоды. Зависит от высоты солнца над горизонтом, облачности и скорости ветра. Ночью, в пасмурную погоду, а также при ветре 12 м/с и более поправка равна нулю.
P - Атмосферное давление - приведенное к уровню моря атмосферное давление.
Po - Атмосферное давление - измеренное на уровне метеостанции атмосферное давление.
Tmin - Минимальная температура - минимум температуры воздуха на высоте 2 м над землей.
Tmax - Максимальная температура - максимум температуры воздуха на высоте 2 м над землей.
R - Количество осадков - Количество выпавших осадков за период времени, мм. При наведении курсора мыши на число - период времени, за который выпало указанное количество осадков.
R24 - Количество осадков - Количество выпавших осадков за 24 часа, мм.
S - Снежный покров - Высота снежного покрова, см. При наведении курсора мыши на число - состояние снежного покрова и степень покрытия местности в баллах.